ALE weather

Alpine Casparis Municipal Airport
Alpine, Texas, United States

Public forecast

Using degrees Fahrenheit for public forecast. Weather courtesy of forecast.io.

Current aviation weather report (METAR) for Alpine Casparis Municipal Airport

Retrieved UTC (0 seconds ago):

Closest aviation forecast (TAF) to Alpine Casparis Municipal Airport

Closest forecast is Fort Stockton Pecos County Airport, 50.9 nm (94.3 km) NE. Retrieved 2019/12/12 12:22 UTC (56 minutes ago):

TAF KFST 121120Z 1212/1312 20009KT P6SM FEW200 TEMPO 1212/1216 6SM BR SCT030 FM121600 25009KT P6SM SKC